JD 3

Satellite information

Favourite Embed

Satellite Type and Status

PAYLOADIN ORBIT

Key statistics

Satellite JD 3 at a glance.

Uptime

15287

Days in orbit

Revolutions

≈ 13.9

Per day

Orbit

LEO

Low Earth Orbit

Inclination

63.3

Latest

Satellite identification and parameters

Extended collection of information and parameters for JD 3.

Object identification

Identified? True

Debris? False

Object name: JD 3

International designator: 1984-012F

Object number (NORAD): 14795

Object ID (CCSDS): 14795

Country: UNITED STATES OF AMERICA (US)

Current information (Y/N): Y

RCS size: LARGE

Orbital parameters

Period: 103.779 minutes

Inclination: 63.2996 deg

SMA: 7315.335 km

Apoapsis: 1479.675 km

Periapsis: 394.725 km

RAAN: 127.2416 deg

Eccentricy: 0.07415589

Argument of periapsis: 123.2658 deg

Mean anomaly: 244.1697 deg

Mean motion: 13.87558961 rev/day

Mean motion (dot): 0.00012162 rev/day2

B* drag term: 0.00097898598 1/REarth

Two-line elements (TLE)

Creation date: Dec. 11, 2025, 7:14 p.m.

Reference frame: TEME

Reference center: EARTH

Epoch: Dec. 11, 2025, 3:57 p.m. UTC

TLE line 0: 0 JD 3

TLE line 1: 1 14795U 84012F 25345.66482129 .00012162 00000-0 97899-3 0 9995

TLE line 2: 2 14795 63.2996 127.2416 0741559 123.2658 244.1697 13.87558961328621

Live tracking on map

Real-time ground track for satellite JD 3.

In-orbit conjunctions

A list of the most updated potential collisions computed for object JD 3.

Target Orbit TCA Probability of collision Miss distance Type
NOAA 4 SSO 2025-11-27 04:03:13 0.001197865 167.0 (m) PAYLOAD
SL-14 R/B LEO 2025-06-23 07:14:48 0.002087368 164.0 (m) ROCKET BODY
FENGYUN 1C DEB SSO 2025-01-30 11:17:29 0.000106674 918.0 (m) DEBRIS

Associated space launch

The Parcae satellites were passive ELINT satellites. MSD satellites were dispensers of triplets of ocean surveillance satellites.

JD 3 was lifted into orbit during the mission ‘Atlas H | Parcae 7A,B,C & MSD 7’, on board a Atlas H space rocket.

The launch took place on Feb. 5, 1984, 6:44 p.m. from Space Launch Complex 3E.

For more information about the launch, click the button.

Launch to space Atlas H | Parcae 7A,B,C & MSD 7
Atlas H | Parcae 7A,B,C & MSD 7

Agency: N/A

Status: Launch Successful

Launch date: Feb. 5, 1984, 6:44 p.m. UTC

Rocket: Atlas H

Launch pad: Space Launch Complex 3E

Location: Vandenberg SFB, CA, USA

...

Latest news about this satellite

There are no fresh news available about this satellite. Check back as we update our databases every day.


Newsletter sign-up

Weekly statistics, charts and insights to help you stay on top of the space industry.